This is the latest recevied weather packets stored in our database for station/object K6CEG. If no packets are shown the sender has not sent any weather packets the latest 10 day(s).
| Time | Temp. | Humidity | Pressure | Rain* | Wind** | Luminosity | Snow |
|---|---|---|---|---|---|---|---|
| 1778367758 | 27.78° C | 45% | 1012.8 hPa | 0 mm | - | 58 W/m² | - |
| 1778367453 | 27.22° C | 46% | 1013 hPa | 0 mm | - | 64 W/m² | - |
| 1778367150 | 27.22° C | 47% | 1013 hPa | 0 mm | - | 318 W/m² | - |
| 1778366845 | 27.78° C | 46% | 1013 hPa | 0 mm | - | 35 W/m² | - |
| 1778366543 | 27.78° C | 45% | 1013 hPa | 0 mm | - | 135 W/m² | - |
| 1778366240 | 27.22° C | 47% | 1013.1 hPa | 0 mm | - | 252 W/m² | - |
| 1778365937 | 28.33° C | 45% | 1013.3 hPa | 0 mm | - | 88 W/m² | - |
| 1778365634 | 27.78° C | 47% | 1013.1 hPa | 0 mm | - | 160 W/m² | - |
| 1778365329 | 28.33° C | 45% | 1013.3 hPa | 0 mm | - | 550 W/m² | - |
| 1778365025 | 27.78° C | 47% | 1013.3 hPa | 0 mm | - | 593 W/m² | - |
| 1778364721 | 27.78° C | 46% | 1013.5 hPa | 0 mm | - | 240 W/m² | - |
| 1778364417 | 28.33° C | 46% | 1013.6 hPa | 0 mm | - | 362 W/m² | - |
| 1778364114 | 27.78° C | 46% | 1013.5 hPa | 0 mm | - | 502 W/m² | - |
| 1778363809 | 27.78° C | 46% | 1013.5 hPa | 0 mm | - | 538 W/m² | - |
| 1778363507 | 28.33° C | 45% | 1013.6 hPa | 0 mm | - | 613 W/m² | - |
| 1778363203 | 28.33° C | 45% | 1013.6 hPa | 0 mm | - | 177 W/m² | - |
| 1778362900 | 28.33° C | 46% | 1014.1 hPa | 0 mm | - | 423 W/m² | - |
| 1778362597 | 28.89° C | 44% | 1013.7 hPa | 0 mm | - | 144 W/m² | - |
| 1778362293 | 28.89° C | 44% | 1014 hPa | 0 mm | - | 649 W/m² | - |
| 1778361991 | 28.89° C | 45% | 1013.9 hPa | 0 mm | - | 123 W/m² | - |
| 1778361687 | 28.33° C | 45% | 1014 hPa | 0 mm | - | 667 W/m² | - |
| 1778361383 | 28.33° C | 46% | 1014 hPa | 0 mm | - | 663 W/m² | - |
| 1778361080 | 28.33° C | 45% | 1014 hPa | 0 mm | - | 665 W/m² | - |
| 1778360777 | 28.33° C | 45% | 1013.8 hPa | 0 mm | - | 668 W/m² | - |
| 1778360474 | 28.89° C | 44% | 1014 hPa | 0 mm | - | 675 W/m² | - |
* Rain latest hour (hover to see other rain measurements)
** Current wind speed in m/s (hover to see current wind gust speed)